Tapachula Airport, Mexico

1:47 PM CDT on July 26, 2017 (GMT -0500)
Tapachula International

Weather History for MMTP - August, 2013

Change the Weather History Date:

Tuesday, August 20, 2013

  Actual Average Record
Temperature  
Mean Temperature 79 °F -  
Max Temperature 89 °F 86 °F 91 °F (2003)
Min Temperature 69 °F 73 °F 69 °F (2013)
Cooling Degree Days 14    
Growing Degree Days 29 (Base 50)    
Moisture  
Dew Point 74 °F    
Average Humidity 83    
Maximum Humidity 94    
Minimum Humidity 62    
Precipitation  
Precipitation 0.00 in - - ()
Sea Level Pressure  
Sea Level Pressure 29.87 in    
Wind  
Wind Speed 3 mph ()    
Max Wind Speed 23 mph    
Max Gust Speed 34 mph    
Visibility 8.6 miles    
Events Rain    
Averages and records for this station are not official NWS values.
T = Trace of Precipitation, MM = Missing Value Source: Averaged Metar Reports

Daily Weather History Graph

Daily Weather History Graph

Search for Another Location

Airport or City:

Trip Planner

Search our weather history database for the weather conditions in past years. The results will help you decide how hot, cold, wet, or windy it might be!

Date:

Astronomy

Aug. 20, 2013 Rise Set
Actual Time 6:55 AM CDT 7:29 PM CDT
Civil Twilight 6:33 AM CDT 7:51 PM CDT
Nautical Twilight 6:07 AM CDT 8:16 PM CDT
Astronomical Twilight 5:41 AM CDT 8:42 PM CDT
Moon 7:11 PM CDT (8/20) 6:21 AM CDT (8/20)
Length of Visible Light 13h 17m
Length of Day
12h 33m
Full, 100% of the Moon is Illuminated
Aug 20
Full
Aug 20
Full
Aug 28
Last Quarter
Sep 5
New
Sep 12
First Quarter

Hourly Weather History & Observations

Time (CDT) Temp. Heat Index Dew Point Humidity Pressure Visibility Wind Dir Wind Speed Gust Speed Precip Events Conditions
12:40 AM 77.0 °F - 73.4 °F 89% 29.86 in 8.0 mi Calm Calm - N/A   Mostly Cloudy
1:40 AM 77.0 °F - 73.4 °F 89% 29.87 in 8.0 mi Calm Calm - N/A   Mostly Cloudy
2:40 AM 77.0 °F - 73.4 °F 89% 29.85 in 8.0 mi Calm Calm - N/A   Mostly Cloudy
3:40 AM 77.0 °F - 73.4 °F 89% 29.83 in 8.0 mi Calm Calm - N/A   Scattered Clouds
4:40 AM 77.0 °F - 73.4 °F 89% 29.84 in 8.0 mi Calm Calm - N/A   Scattered Clouds
5:56 AM 69.8 °F - 68.0 °F 94% 29.91 in 5.0 mi ESE 23.0 mph 34.5 mph N/A Rain Rain
6:50 AM 69.8 °F - 68.0 °F 94% 29.83 in 8.0 mi Calm Calm - N/A   Mostly Cloudy
7:40 AM 69.8 °F - 68.0 °F 94% 29.88 in 8.0 mi Calm Calm - N/A   Mostly Cloudy
8:40 AM 71.6 °F - 69.8 °F 94% 29.89 in 8.0 mi Calm Calm - N/A   Mostly Cloudy
9:40 AM 77.0 °F - 73.4 °F 89% 29.90 in 8.0 mi North 11.5 mph - N/A   Mostly Cloudy
10:40 AM 80.6 °F 86.2 °F 75.2 °F 84% 29.90 in 8.0 mi North 5.8 mph - N/A   Mostly Cloudy
1:03 PM 86.0 °F 91.8 °F 71.6 °F 62% 29.94 in 8.0 mi West 9.2 mph - N/A   Mostly Cloudy
1:40 PM 87.8 °F 97.6 °F 75.2 °F 66% 29.89 in 8.0 mi SW 8.1 mph - N/A   Mostly Cloudy
2:45 PM 87.8 °F 97.6 °F 75.2 °F 66% 29.87 in 8.0 mi NNW 11.5 mph - N/A   Mostly Cloudy
3:45 PM 87.8 °F 99.7 °F 77.0 °F 70% 29.86 in 8.0 mi NNW 11.5 mph - N/A   Mostly Cloudy
4:40 PM 89.6 °F 99.8 °F 75.2 °F 62% 29.84 in 10.0 mi Calm Calm - N/A   Mostly Cloudy
5:40 PM 87.8 °F 102.5 °F 78.8 °F 75% 29.83 in 10.0 mi West 9.2 mph - N/A   Mostly Cloudy
6:40 PM 86.0 °F 99.3 °F 78.8 °F 79% 29.86 in 10.0 mi West 9.2 mph - N/A   Mostly Cloudy
7:40 PM 84.2 °F 96.1 °F 78.8 °F 84% 29.85 in 10.0 mi Calm Calm - N/A   Scattered Clouds
8:40 PM 82.4 °F 92.4 °F 78.8 °F 89% 29.89 in 10.0 mi Calm Calm - N/A   Scattered Clouds
9:40 PM 80.6 °F 87.1 °F 77.0 °F 89% 29.86 in 10.0 mi Calm Calm - N/A   Scattered Clouds
10:40 PM 80.6 °F 87.1 °F 77.0 °F 89% 29.89 in 10.0 mi Calm Calm - N/A   Scattered Clouds
11:40 PM 80.6 °F 87.1 °F 77.0 °F 89% 29.89 in 10.0 mi Calm Calm - N/A   Scattered Clouds